Time,TemperatureF,DewpointF,PressureIn,WindDirection,WindDirectionDegrees,WindSpeedMPH,WindSpeedGustMPH,Humidity,HourlyPrecipIn,Conditions,Clouds,dailyrainin,SoftwareType,DateUTC
2013-09-19 00:21:00,61.0,35.0,30.11,ESE,111,3.0,6.0,38,0.00,,,0.02,,2013-09-19 07:21:00,
2013-09-19 02:53:00,56.0,38.0,30.11,North,0,0.0,5.0,51,0.00,,,0.01,,2013-09-19 09:53:00,
2013-09-19 03:23:00,54.0,38.0,30.11,North,0,0.0,4.0,55,0.00,,,0.01,,2013-09-19 10:23:00,
2013-09-19 03:33:00,54.0,38.0,30.11,North,0,0.0,4.0,55,0.00,,,0.01,,2013-09-19 10:33:00,
2013-09-19 03:52:00,52.0,38.0,30.13,North,0,0.0,4.0,58,0.00,,,0.01,,2013-09-19 10:52:00,
2013-09-19 04:11:00,51.0,38.0,30.13,North,0,0.0,3.0,61,0.00,,,0.01,,2013-09-19 11:11:00,
2013-09-19 04:22:00,49.0,37.0,30.14,SSW,212,1.0,4.0,64,0.00,,,0.01,,2013-09-19 11:22:00,
2013-09-19 04:52:00,49.0,37.0,30.14,North,0,0.0,3.0,64,0.00,,,0.01,,2013-09-19 11:52:00,
2013-09-19 05:21:00,47.0,38.0,30.14,North,0,0.0,0.0,70,0.00,,,0.01,,2013-09-19 12:21:00,
2013-09-19 05:52:00,45.0,38.0,30.16,North,0,0.0,1.0,75,0.00,,,0.01,,2013-09-19 12:52:00,
2013-09-19 06:21:00,46.0,38.0,30.15,North,0,0.0,0.0,74,0.00,,,0.01,,2013-09-19 13:21:00,
2013-09-19 06:52:00,46.0,38.0,30.15,North,0,0.0,1.0,74,0.00,,,0.01,,2013-09-19 13:52:00,
2013-09-19 07:12:00,46.0,39.0,30.17,North,0,0.0,1.0,75,0.00,,,0.01,,2013-09-19 14:12:00,
2013-09-19 07:22:00,46.0,39.0,30.17,North,0,0.0,1.0,75,0.00,,,0.01,,2013-09-19 14:22:00,
2013-09-19 07:32:00,46.0,39.0,30.17,North,0,0.0,1.0,75,0.00,,,0.01,,2013-09-19 14:32:00,
2013-09-19 07:52:00,51.0,40.0,30.18,North,0,0.0,3.0,67,0.00,,,0.01,,2013-09-19 14:52:00,
2013-09-19 08:21:00,56.0,42.0,30.18,North,0,0.0,4.0,60,0.00,,,0.01,,2013-09-19 15:21:00,
2013-09-19 08:53:00,62.0,43.0,30.18,North,0,0.0,2.0,50,0.00,,,0.01,,2013-09-19 15:53:00,
2013-09-19 09:03:00,62.0,43.0,30.18,North,0,0.0,2.0,50,0.00,,,0.01,,2013-09-19 16:03:00,
2013-09-19 09:23:00,66.0,42.0,30.19,North,0,0.0,2.0,42,0.00,,,0.01,,2013-09-19 16:23:00,
2013-09-19 09:52:00,69.0,43.0,30.20,SE,130,8.0,11.0,39,0.00,,,0.01,,2013-09-19 16:52:00,
2013-09-19 10:23:00,69.0,42.0,30.19,WNW,290,3.0,7.0,38,0.00,,,0.01,,2013-09-19 17:23:00,
2013-09-19 10:53:00,71.0,43.0,30.19,South,177,2.0,10.0,36,0.00,,,0.01,,2013-09-19 17:53:00,
2013-09-19 11:02:00,71.0,43.0,30.19,South,177,2.0,10.0,36,0.00,,,0.01,,2013-09-19 18:02:00,
2013-09-19 11:11:00,71.0,43.0,30.19,South,177,2.0,10.0,36,0.00,,,0.01,,2013-09-19 18:11:00,
2013-09-19 11:22:00,73.0,44.0,30.19,ESE,122,2.0,7.0,35,0.00,,,0.01,,2013-09-19 18:22:00,
2013-09-19 11:52:00,72.0,44.0,30.18,West,261,5.0,9.0,37,0.00,,,0.01,,2013-09-19 18:52:00,
2013-09-19 12:12:00,74.0,46.0,30.17,SSE,164,8.0,15.0,37,0.00,,,0.00,,2013-09-19 19:12:00,
2013-09-19 12:21:00,74.0,45.0,30.17,SSW,212,3.0,15.0,36,0.00,,,0.00,,2013-09-19 19:21:00,
2013-09-19 12:52:00,73.0,44.0,30.16,West,261,5.0,15.0,35,0.00,,,0.00,,2013-09-19 19:52:00,
2013-09-19 13:21:00,74.0,43.0,30.16,North,0,0.0,9.0,33,0.00,,,0.00,,2013-09-19 20:21:00,
2013-09-19 13:32:00,74.0,43.0,30.16,North,0,0.0,9.0,33,0.00,,,0.00,,2013-09-19 20:32:00,
2013-09-19 13:42:00,74.0,43.0,30.16,North,0,0.0,9.0,33,0.00,,,0.00,,2013-09-19 20:42:00,
2013-09-19 13:52:00,76.0,42.0,30.14,West,263,7.0,13.0,30,0.00,,,0.00,,2013-09-19 20:52:00,
2013-09-19 13:54:00,75.0,41.0,30.14,SW,232,5.0,13.0,29,0.00,,,0.00,,2013-09-19 20:54:00,
2013-09-19 14:22:00,75.0,41.0,30.14,SW,232,5.0,13.0,29,0.00,,,0.00,,2013-09-19 21:22:00,
2013-09-19 14:34:00,75.0,41.0,30.14,SW,232,5.0,13.0,29,0.00,,,0.00,,2013-09-19 21:34:00,
2013-09-19 15:00:00,77.0,41.0,30.13,West,262,2.0,10.0,28,0.00,,,0.00,,2013-09-19 22:00:00,
2013-09-19 15:24:00,77.0,41.0,30.13,West,262,2.0,10.0,28,0.00,,,0.00,,2013-09-19 22:24:00,
2013-09-19 15:33:00,77.0,41.0,30.13,West,262,2.0,10.0,28,0.00,,,0.00,,2013-09-19 22:33:00,
2013-09-19 15:53:00,77.0,41.0,30.13,West,262,2.0,10.0,28,0.00,,,0.00,,2013-09-19 22:53:00,
2013-09-19 16:22:00,76.0,41.0,30.12,West,260,1.0,7.0,28,0.00,,,0.00,,2013-09-19 23:22:00,
2013-09-19 16:42:00,76.0,40.0,30.11,North,8,1.0,7.0,27,0.00,,,0.00,,2013-09-19 23:42:00,
2013-09-19 16:53:00,76.0,40.0,30.11,North,8,1.0,7.0,27,0.00,,,0.00,,2013-09-19 23:53:00,
2013-09-19 17:21:00,76.0,40.0,30.11,West,275,5.0,9.0,27,0.00,,,0.00,,2013-09-20 00:21:00,
2013-09-19 17:52:00,75.0,40.0,30.11,North,0,0.0,7.0,28,0.00,,,0.00,,2013-09-20 00:52:00,
2013-09-19 18:22:00,74.0,41.0,30.11,SW,232,2.0,8.0,30,0.00,,,0.00,,2013-09-20 01:22:00,
2013-09-19 18:32:00,74.0,41.0,30.11,SW,232,2.0,8.0,30,0.00,,,0.00,,2013-09-20 01:32:00,
2013-09-19 18:52:00,68.0,47.0,30.12,North,0,0.0,3.0,47,0.00,,,0.00,,2013-09-20 01:52:00,
2013-09-19 19:11:00,67.0,45.0,30.13,North,0,0.0,1.0,45,0.00,,,0.00,,2013-09-20 02:11:00,
2013-09-19 19:22:00,67.0,45.0,30.13,North,0,0.0,1.0,45,0.00,,,0.00,,2013-09-20 02:22:00,
2013-09-19 19:52:00,64.0,45.0,30.14,North,0,0.0,5.0,51,0.00,,,0.00,,2013-09-20 02:52:00,
2013-09-19 20:12:00,61.0,45.0,30.14,North,0,0.0,0.0,56,0.00,,,0.00,,2013-09-20 03:12:00,
2013-09-19 20:22:00,61.0,45.0,30.14,North,0,0.0,0.0,56,0.00,,,0.00,,2013-09-20 03:22:00,
2013-09-19 20:56:00,56.0,44.0,30.17,North,0,0.0,0.0,63,0.00,,,0.00,,2013-09-20 03:56:00,
2013-09-19 21:24:00,55.0,43.0,30.17,North,0,0.0,0.0,64,0.00,,,0.00,,2013-09-20 04:24:00,
2013-09-19 21:53:00,54.0,43.0,30.18,North,0,0.0,0.0,66,0.00,,,0.00,,2013-09-20 04:53:00,
2013-09-19 22:23:00,52.0,44.0,30.17,North,0,0.0,0.0,73,0.00,,,0.00,,2013-09-20 05:23:00,
2013-09-19 22:53:00,51.0,44.0,30.18,North,0,0.0,0.0,76,0.00,,,0.00,,2013-09-20 05:53:00,
2013-09-19 23:03:00,51.0,44.0,30.18,North,0,0.0,0.0,76,0.00,,,0.00,,2013-09-20 06:03:00,
2013-09-19 23:12:00,51.0,44.0,30.18,North,0,0.0,0.0,76,0.00,,,0.00,,2013-09-20 06:12:00,
2013-09-19 23:22:00,50.0,44.0,30.19,North,0,0.0,0.0,80,0.00,,,0.00,,2013-09-20 06:22:00,
2013-09-19 23:52:00,49.0,44.0,30.19,North,0,0.0,0.0,82,0.00,,,0.00,,2013-09-20 06:52:00,